Time,TemperatureF,DewpointF,PressureIn,WindDirection,WindDirectionDegrees,WindSpeedMPH,WindSpeedGustMPH,Humidity,HourlyPrecipIn,Conditions,Clouds,dailyrainin,SoftwareType,DateUTC
2013-07-14 00:02:00,74.0,73.0,30.31,ESE,120,0.0,0.0,98,0.00,,,0.00,,2013-07-14 04:02:00,
2013-07-14 00:11:00,74.0,73.0,30.31,ESE,120,0.0,0.0,98,0.00,,,0.00,,2013-07-14 04:11:00,
2013-07-14 00:22:00,74.0,74.0,30.28,SSE,160,1.0,2.0,99,0.00,,,0.00,,2013-07-14 04:22:00,
2013-07-14 00:32:00,74.0,74.0,30.28,SE,125,1.0,3.0,100,0.00,,,0.00,,2013-07-14 04:32:00,
2013-07-14 00:42:00,74.0,74.0,30.28,SE,125,1.0,3.0,100,0.00,,,0.00,,2013-07-14 04:42:00,
2013-07-14 00:54:00,74.0,74.0,30.31,ENE,70,1.0,2.0,100,0.00,,,0.00,,2013-07-14 04:54:00,
2013-07-14 01:02:00,74.0,74.0,30.31,ESE,120,0.0,3.0,100,0.00,,,0.00,,2013-07-14 05:02:00,
2013-07-14 01:11:00,74.0,74.0,30.31,ESE,120,0.0,3.0,100,0.00,,,0.00,,2013-07-14 05:11:00,
2013-07-14 01:23:00,74.0,74.0,30.31,SSE,160,2.0,5.0,100,0.00,,,0.00,,2013-07-14 05:23:00,
2013-07-14 01:32:00,74.0,74.0,30.31,SE,130,2.0,0.0,100,0.00,,,0.00,,2013-07-14 05:32:00,
2013-07-14 01:43:00,74.0,74.0,30.31,SE,130,2.0,0.0,100,0.00,,,0.00,,2013-07-14 05:43:00,
2013-07-14 01:53:00,74.0,74.0,30.31,SE,130,2.0,5.0,100,0.00,,,0.00,,2013-07-14 05:53:00,
2013-07-14 02:01:00,74.0,74.0,30.31,ESE,110,2.0,2.0,100,0.00,,,0.00,,2013-07-14 06:01:00,
2013-07-14 02:12:00,74.0,74.0,30.31,ESE,110,2.0,2.0,100,0.00,,,0.00,,2013-07-14 06:12:00,
2013-07-14 02:22:00,74.0,74.0,30.31,SE,130,1.0,3.0,100,0.00,,,0.00,,2013-07-14 06:22:00,
2013-07-14 02:32:00,74.0,74.0,30.31,ESE,120,1.0,2.0,100,0.00,,,0.00,,2013-07-14 06:32:00,
2013-07-14 02:42:00,74.0,74.0,30.31,ESE,120,1.0,2.0,100,0.00,,,0.00,,2013-07-14 06:42:00,
2013-07-14 02:53:00,74.0,74.0,30.28,SE,125,0.0,0.0,100,0.00,,,0.00,,2013-07-14 06:53:00,
2013-07-14 03:02:00,74.0,74.0,30.28,SE,125,0.0,0.0,100,0.00,,,0.00,,2013-07-14 07:02:00,
2013-07-14 03:12:00,74.0,74.0,30.28,SE,125,0.0,0.0,100,0.00,,,0.00,,2013-07-14 07:12:00,
2013-07-14 03:22:00,74.0,74.0,30.28,SE,145,0.0,0.0,100,0.00,,,0.00,,2013-07-14 07:22:00,
2013-07-14 03:33:00,74.0,74.0,30.28,SE,135,0.0,0.0,100,0.00,,,0.00,,2013-07-14 07:33:00,
2013-07-14 03:43:00,74.0,74.0,30.28,SE,135,0.0,0.0,100,0.00,,,0.00,,2013-07-14 07:43:00,
2013-07-14 03:53:00,75.0,75.0,30.28,NE,35,1.0,3.0,100,0.00,,,0.00,,2013-07-14 07:53:00,
2013-07-14 04:01:00,74.0,74.0,30.28,East,100,1.0,0.0,100,0.00,,,0.00,,2013-07-14 08:01:00,
2013-07-14 04:11:00,74.0,74.0,30.28,East,100,1.0,0.0,100,0.00,,,0.00,,2013-07-14 08:11:00,
2013-07-14 04:22:00,74.0,74.0,30.28,SE,130,1.0,3.0,100,0.00,,,0.00,,2013-07-14 08:22:00,
2013-07-14 04:32:00,74.0,74.0,30.28,SSW,205,1.0,0.0,100,0.00,,,0.00,,2013-07-14 08:32:00,
2013-07-14 04:42:00,74.0,74.0,30.28,SSW,205,1.0,0.0,100,0.00,,,0.00,,2013-07-14 08:42:00,
2013-07-14 04:53:00,73.0,73.0,30.28,ESE,115,0.0,0.0,100,0.00,,,0.00,,2013-07-14 08:53:00,
2013-07-14 05:01:00,73.0,73.0,30.28,ESE,115,0.0,0.0,100,0.00,,,0.00,,2013-07-14 09:01:00,
2013-07-14 05:11:00,73.0,73.0,30.28,ESE,115,0.0,0.0,100,0.00,,,0.00,,2013-07-14 09:11:00,
2013-07-14 05:22:00,73.0,73.0,30.31,SW,230,0.0,0.0,100,0.00,,,0.00,,2013-07-14 09:22:00,
2013-07-14 05:32:00,73.0,73.0,30.31,SW,230,0.0,0.0,100,0.00,,,0.00,,2013-07-14 09:32:00,
2013-07-14 05:42:00,73.0,73.0,30.31,SW,230,0.0,0.0,100,0.00,,,0.00,,2013-07-14 09:42:00,
2013-07-14 05:53:00,73.0,73.0,30.31,SW,230,0.0,0.0,100,0.00,,,0.00,,2013-07-14 09:53:00,
2013-07-14 06:01:00,73.0,73.0,30.31,SW,225,0.0,0.0,100,0.00,,,0.00,,2013-07-14 10:01:00,
2013-07-14 06:12:00,73.0,73.0,30.31,SW,225,0.0,0.0,100,0.00,,,0.00,,2013-07-14 10:12:00,
2013-07-14 06:22:00,74.0,74.0,30.31,ENE,75,0.0,0.0,100,0.00,,,0.00,,2013-07-14 10:22:00,
2013-07-14 06:32:00,74.0,74.0,30.31,NE,50,0.0,0.0,100,0.00,,,0.00,,2013-07-14 10:32:00,
2013-07-14 06:42:00,74.0,74.0,30.31,NE,50,0.0,0.0,100,0.00,,,0.00,,2013-07-14 10:42:00,
2013-07-14 06:53:00,74.0,74.0,30.31,NW,305,0.0,1.0,100,0.00,,,0.00,,2013-07-14 10:53:00,
2013-07-14 07:02:00,74.0,74.0,30.31,SE,130,0.0,1.0,100,0.00,,,0.00,,2013-07-14 11:02:00,
2013-07-14 07:11:00,74.0,74.0,30.31,SE,130,0.0,1.0,100,0.00,,,0.00,,2013-07-14 11:11:00,
2013-07-14 07:22:00,75.0,75.0,30.34,South,170,0.0,0.0,100,0.00,,,0.00,,2013-07-14 11:22:00,
2013-07-14 07:32:00,75.0,75.0,30.34,WSW,245,0.0,0.0,100,0.00,,,0.00,,2013-07-14 11:32:00,
2013-07-14 07:43:00,75.0,75.0,30.34,WSW,245,0.0,0.0,100,0.00,,,0.00,,2013-07-14 11:43:00,
2013-07-14 07:53:00,75.0,75.0,30.34,WSW,245,0.0,0.0,100,0.00,,,0.00,,2013-07-14 11:53:00,
2013-07-14 08:02:00,75.0,75.0,30.34,WSW,245,0.0,0.0,100,0.00,,,0.00,,2013-07-14 12:02:00,
2013-07-14 08:12:00,75.0,75.0,30.34,WSW,245,0.0,0.0,100,0.00,,,0.00,,2013-07-14 12:12:00,
2013-07-14 08:22:00,76.0,76.0,30.34,WSW,245,0.0,0.0,100,0.00,,,0.00,,2013-07-14 12:22:00,
2013-07-14 08:33:00,76.0,76.0,30.34,WSW,245,0.0,0.0,100,0.00,,,0.00,,2013-07-14 12:33:00,
2013-07-14 08:43:00,76.0,76.0,30.34,WSW,245,0.0,0.0,100,0.00,,,0.00,,2013-07-14 12:43:00,
2013-07-14 08:53:00,77.0,77.0,30.34,WSW,245,0.0,0.0,100,0.00,,,0.00,,2013-07-14 12:53:00,
2013-07-14 09:01:00,77.0,75.0,30.34,WSW,245,0.0,0.0,95,0.00,,,0.00,,2013-07-14 13:01:00,
2013-07-14 09:11:00,77.0,75.0,30.34,WSW,245,0.0,0.0,95,0.00,,,0.00,,2013-07-14 13:11:00,
2013-07-14 09:22:00,77.0,74.0,30.34,WNW,285,0.0,1.0,89,0.00,,,0.00,,2013-07-14 13:22:00,
2013-07-14 09:32:00,78.0,73.0,30.34,WNW,285,0.0,0.0,86,0.00,,,0.00,,2013-07-14 13:32:00,
2013-07-14 09:42:00,78.0,73.0,30.34,WNW,285,0.0,0.0,86,0.00,,,0.00,,2013-07-14 13:42:00,
2013-07-14 09:53:00,80.0,73.0,30.34,WNW,285,0.0,0.0,79,0.00,,,0.00,,2013-07-14 13:53:00,
2013-07-14 10:02:00,80.0,72.0,30.34,WNW,290,0.0,2.0,77,0.00,,,0.00,,2013-07-14 14:02:00,
2013-07-14 10:11:00,80.0,72.0,30.34,WNW,290,0.0,2.0,77,0.00,,,0.00,,2013-07-14 14:11:00,
2013-07-14 10:23:00,81.0,72.0,30.34,WSW,240,2.0,3.0,73,0.00,,,0.00,,2013-07-14 14:23:00,
2013-07-14 10:33:00,81.0,72.0,30.34,WNW,300,2.0,2.0,73,0.00,,,0.00,,2013-07-14 14:33:00,
2013-07-14 10:43:00,81.0,72.0,30.34,WNW,300,2.0,2.0,73,0.00,,,0.00,,2013-07-14 14:43:00,
2013-07-14 10:53:00,82.0,72.0,30.34,NW,320,3.0,6.0,73,0.00,,,0.00,,2013-07-14 14:53:00,
2013-07-14 11:01:00,82.0,72.0,30.34,SW,235,3.0,3.0,72,0.00,,,0.00,,2013-07-14 15:01:00,
2013-07-14 11:12:00,82.0,72.0,30.34,SW,235,3.0,3.0,72,0.00,,,0.00,,2013-07-14 15:12:00,
2013-07-14 11:22:00,83.0,72.0,30.34,WSW,255,2.0,5.0,70,0.00,,,0.00,,2013-07-14 15:22:00,
2013-07-14 11:32:00,83.0,72.0,30.34,WNW,290,2.0,5.0,69,0.00,,,0.00,,2013-07-14 15:32:00,
2013-07-14 11:42:00,83.0,72.0,30.34,WNW,290,2.0,5.0,69,0.00,,,0.00,,2013-07-14 15:42:00,
2013-07-14 11:53:00,85.0,73.0,30.34,WSW,245,2.0,2.0,68,0.00,,,0.00,,2013-07-14 15:53:00,
2013-07-14 12:11:00,86.0,73.0,30.34,West,270,1.0,6.0,65,0.00,,,0.00,,2013-07-14 16:11:00,
2013-07-14 12:22:00,85.0,71.0,30.34,WSW,255,2.0,6.0,64,0.00,,,0.00,,2013-07-14 16:22:00,
2013-07-14 12:32:00,86.0,72.0,30.34,West,265,2.0,5.0,63,0.00,,,0.00,,2013-07-14 16:32:00,
2013-07-14 12:43:00,86.0,72.0,30.34,West,265,2.0,5.0,63,0.00,,,0.00,,2013-07-14 16:43:00,
2013-07-14 13:02:00,87.0,72.0,30.34,West,260,3.0,6.0,62,0.00,,,0.00,,2013-07-14 17:02:00,
2013-07-14 13:11:00,87.0,72.0,30.34,West,260,3.0,6.0,62,0.00,,,0.00,,2013-07-14 17:11:00,
2013-07-14 13:22:00,87.0,71.0,30.34,NW,320,2.0,5.0,59,0.00,,,0.00,,2013-07-14 17:22:00,
2013-07-14 13:32:00,87.0,71.0,30.34,WNW,295,2.0,3.0,60,0.00,,,0.00,,2013-07-14 17:32:00,
2013-07-14 13:43:00,87.0,71.0,30.34,WNW,295,2.0,3.0,60,0.00,,,0.00,,2013-07-14 17:43:00,
2013-07-14 13:53:00,87.0,70.0,30.34,West,275,2.0,5.0,58,0.00,,,0.00,,2013-07-14 17:53:00,
2013-07-14 14:01:00,87.0,69.0,30.34,NNW,335,3.0,5.0,56,0.00,,,0.00,,2013-07-14 18:01:00,
2013-07-14 14:11:00,87.0,69.0,30.34,NNW,335,3.0,5.0,56,0.00,,,0.00,,2013-07-14 18:11:00,
2013-07-14 14:22:00,88.0,71.0,30.34,NW,310,2.0,6.0,57,0.00,,,0.00,,2013-07-14 18:22:00,
2013-07-14 14:32:00,88.0,70.0,30.34,West,270,2.0,3.0,56,0.00,,,0.00,,2013-07-14 18:32:00,
2013-07-14 14:42:00,88.0,70.0,30.34,West,270,2.0,3.0,56,0.00,,,0.00,,2013-07-14 18:42:00,
2013-07-14 14:52:00,89.0,72.0,30.31,WSW,250,1.0,3.0,57,0.00,,,0.00,,2013-07-14 18:52:00,
2013-07-14 15:02:00,89.0,71.0,30.31,West,265,1.0,3.0,55,0.00,,,0.00,,2013-07-14 19:02:00,
2013-07-14 15:12:00,89.0,71.0,30.31,West,265,1.0,3.0,55,0.00,,,0.00,,2013-07-14 19:12:00,
2013-07-14 15:22:00,88.0,70.0,30.31,NNW,345,2.0,3.0,55,0.00,,,0.00,,2013-07-14 19:22:00,
2013-07-14 15:32:00,88.0,70.0,30.31,NNW,345,2.0,0.0,55,0.00,,,0.00,,2013-07-14 19:32:00,
2013-07-14 15:43:00,88.0,70.0,30.31,NNW,345,2.0,0.0,55,0.00,,,0.00,,2013-07-14 19:43:00,
2013-07-14 16:53:00,88.0,73.0,30.31,SE,130,3.0,6.0,61,0.00,,,0.00,,2013-07-14 20:53:00,
2013-07-14 17:02:00,88.0,72.0,30.31,SE,125,3.0,6.0,60,0.00,,,0.00,,2013-07-14 21:02:00,
2013-07-14 17:22:00,87.0,71.0,30.31,ESE,110,6.0,7.0,60,0.00,,,0.00,,2013-07-14 21:22:00,
2013-07-14 17:32:00,86.0,71.0,30.28,SE,140,6.0,6.0,62,0.00,,,0.00,,2013-07-14 21:32:00,
2013-07-14 17:43:00,86.0,71.0,30.28,SE,140,6.0,6.0,62,0.00,,,0.00,,2013-07-14 21:43:00,
2013-07-14 17:53:00,85.0,71.0,30.28,South,170,3.0,6.0,64,0.00,,,0.00,,2013-07-14 21:53:00,
2013-07-14 18:01:00,84.0,71.0,30.28,SE,130,3.0,3.0,66,0.00,,,0.00,,2013-07-14 22:01:00,
2013-07-14 18:11:00,84.0,71.0,30.28,SE,130,3.0,3.0,66,0.00,,,0.00,,2013-07-14 22:11:00,
2013-07-14 18:22:00,83.0,70.0,30.28,SE,130,3.0,6.0,65,0.00,,,0.00,,2013-07-14 22:22:00,
2013-07-14 18:32:00,83.0,70.0,30.28,South,170,5.0,6.0,66,0.00,,,0.00,,2013-07-14 22:32:00,
2013-07-14 18:42:00,83.0,70.0,30.28,South,170,5.0,6.0,66,0.00,,,0.00,,2013-07-14 22:42:00,
2013-07-14 18:53:00,83.0,70.0,30.28,South,185,3.0,6.0,64,0.00,,,0.00,,2013-07-14 22:53:00,
2013-07-14 19:01:00,83.0,69.0,30.28,South,170,3.0,6.0,63,0.00,,,0.00,,2013-07-14 23:01:00,
2013-07-14 19:11:00,83.0,69.0,30.28,South,170,3.0,6.0,63,0.00,,,0.00,,2013-07-14 23:11:00,
2013-07-14 19:22:00,83.0,70.0,30.28,SE,145,3.0,7.0,64,0.00,,,0.00,,2013-07-14 23:22:00,
2013-07-14 19:32:00,83.0,70.0,30.28,East,85,3.0,7.0,64,0.00,,,0.00,,2013-07-14 23:32:00,
2013-07-14 19:42:00,83.0,70.0,30.28,East,85,3.0,7.0,64,0.00,,,0.00,,2013-07-14 23:42:00,
2013-07-14 19:53:00,82.0,70.0,30.28,ESE,105,2.0,7.0,67,0.00,,,0.00,,2013-07-14 23:53:00,
2013-07-14 20:02:00,81.0,69.0,30.28,NNW,340,2.0,5.0,68,0.00,,,0.00,,2013-07-15 00:02:00,
2013-07-14 20:11:00,81.0,69.0,30.28,NNW,340,2.0,5.0,68,0.00,,,0.00,,2013-07-15 00:11:00,
2013-07-14 20:22:00,79.0,70.0,30.28,North,350,2.0,5.0,75,0.00,,,0.00,,2013-07-15 00:22:00,
2013-07-14 20:32:00,79.0,71.0,30.28,ESE,120,3.0,6.0,77,0.00,,,0.00,,2013-07-15 00:32:00,
2013-07-14 20:43:00,79.0,71.0,30.28,ESE,120,3.0,6.0,77,0.00,,,0.00,,2013-07-15 00:43:00,
2013-07-14 20:53:00,78.0,72.0,30.28,SSE,160,1.0,3.0,81,0.00,,,0.00,,2013-07-15 00:53:00,
2013-07-14 21:01:00,78.0,72.0,30.31,WNW,290,1.0,1.0,82,0.00,,,0.00,,2013-07-15 01:01:00,
2013-07-14 21:11:00,78.0,72.0,30.31,WNW,290,1.0,1.0,82,0.00,,,0.00,,2013-07-15 01:11:00,
2013-07-14 21:22:00,77.0,72.0,30.28,SE,135,1.0,3.0,85,0.00,,,0.00,,2013-07-15 01:22:00,
2013-07-14 21:32:00,76.0,72.0,30.28,SE,125,1.0,0.0,86,0.00,,,0.00,,2013-07-15 01:32:00,
2013-07-14 21:43:00,76.0,72.0,30.28,SE,125,1.0,0.0,86,0.00,,,0.00,,2013-07-15 01:43:00,
2013-07-14 21:53:00,76.0,72.0,30.31,ESE,120,0.0,0.0,87,0.00,,,0.00,,2013-07-15 01:53:00,
2013-07-14 22:02:00,76.0,72.0,30.31,ESE,120,0.0,0.0,87,0.00,,,0.00,,2013-07-15 02:02:00,
2013-07-14 22:11:00,76.0,72.0,30.31,ESE,120,0.0,0.0,87,0.00,,,0.00,,2013-07-15 02:11:00,
2013-07-14 22:22:00,75.0,72.0,30.31,ESE,120,0.0,0.0,89,0.00,,,0.00,,2013-07-15 02:22:00,
2013-07-14 22:32:00,75.0,72.0,30.31,ESE,120,0.0,0.0,90,0.00,,,0.00,,2013-07-15 02:32:00,
2013-07-14 22:42:00,75.0,72.0,30.31,ESE,120,0.0,0.0,90,0.00,,,0.00,,2013-07-15 02:42:00,
2013-07-14 22:53:00,75.0,72.0,30.31,ESE,120,0.0,0.0,91,0.00,,,0.00,,2013-07-15 02:53:00,
2013-07-14 23:02:00,75.0,73.0,30.31,ESE,120,0.0,1.0,92,0.00,,,0.00,,2013-07-15 03:02:00,
2013-07-14 23:11:00,75.0,73.0,30.31,ESE,120,0.0,1.0,92,0.00,,,0.00,,2013-07-15 03:11:00,
2013-07-14 23:22:00,74.0,72.0,30.31,ESE,115,0.0,0.0,92,0.00,,,0.00,,2013-07-15 03:22:00,
2013-07-14 23:32:00,74.0,72.0,30.31,ESE,115,0.0,0.0,93,0.00,,,0.00,,2013-07-15 03:32:00,
2013-07-14 23:43:00,74.0,72.0,30.31,ESE,115,0.0,0.0,93,0.00,,,0.00,,2013-07-15 03:43:00,
2013-07-14 23:53:00,74.0,72.0,30.28,ESE,115,0.0,0.0,94,0.00,,,0.00,,2013-07-15 03:53:00,